| time (UTC) | temp C | wind direction | speed KPH | gust KPH | rain 1hr cm | rain 24hr cm | rain mn cm | humidity % | barometer mb |
| 20260506123412 | 6 | 229 | 3.2 | 12.9 | 0.10 | 0.43 | 0.28 | 83 | 1010.2 |
| 20260506121912 | 6 | 214 | 1.6 | 8.0 | 0.10 | 0.41 | 0.25 | 82 | 1010.3 |
| 20260506120412 | 6 | 212 | 1.6 | 3.2 | 0.13 | 0.38 | 0.23 | 84 | 1010.1 |
| 20260506114912 | 6 | 207 | 3.2 | 8.0 | 0.13 | 0.36 | 0.20 | 82 | 1010.1 |
| 20260506113412 | 6 | 238 | 1.6 | 11.3 | 0.10 | 0.33 | 0.18 | 81 | 1010.1 |
| 20260506111912 | 6 | 234 | 3.2 | 8.0 | 0.10 | 0.30 | 0.15 | 80 | 1010.3 |
| 20260506110412 | 6 | 258 | 1.6 | 3.2 | 0.10 | 0.25 | 0.10 | 80 | 1010.0 |
| 20260506104912 | 6 | 271 | 1.6 | 3.2 | 0.08 | 0.23 | 0.08 | 79 | 1009.9 |
| 20260506103412 | 6 | 253 | 1.6 | 8.0 | 0.08 | 0.23 | 0.08 | 77 | 1009.7 |
| 20260506101912 | 7 | 262 | 3.2 | 6.4 | 0.05 | 0.20 | 0.05 | 75 | 1009.3 |
| 20260506100412 | 7 | 243 | 4.8 | 11.3 | 0.00 | 0.15 | 0.00 | 74 | 1009.1 |
| 20260506094912 | 7 | 271 | 6.4 | 9.7 | 0.00 | 0.15 | 0.00 | 73 | 1009.1 |
| 20260506093412 | 8 | 261 | 1.6 | 6.4 | 0.00 | 0.15 | 0.00 | 81 | 1008.7 |
| 20260506091912 | 8 | 238 | 3.2 | 8.0 | 0.00 | 0.15 | 0.00 | 80 | 1008.6 |
| 20260506090412 | 8 | 250 | 3.2 | 9.7 | 0.00 | 0.15 | 0.00 | 80 | 1008.5 |
| 20260506084912 | 8 | 274 | 4.8 | 9.7 | 0.00 | 0.15 | 0.00 | 80 | 1008.8 |
| 20260506083412 | 8 | 236 | 3.2 | 11.3 | 0.00 | 0.15 | 0.00 | 79 | 1008.8 |
| 20260506081912 | 8 | 248 | 4.8 | 12.9 | 0.00 | 0.15 | 0.00 | 79 | 1008.8 |
| 20260506080412 | 8 | 250 | 4.8 | 11.3 | 0.00 | 0.15 | 0.00 | 78 | 1008.4 |
| 20260506073413 | 9 | 238 | 6.4 | 14.5 | 0.00 | 0.15 | 0.00 | 77 | 1008.2 |
| 20260506071912 | 9 | 251 | 4.8 | 12.9 | 0.00 | 0.15 | 0.00 | 76 | 1008.2 |
| 20260506070413 | 9 | 243 | 4.8 | 12.9 | 0.00 | 0.15 | 0.00 | 74 | 1008.0 |
| 20260506061913 | 10 | 238 | 4.8 | 11.3 | 0.00 | 0.15 | 0.00 | 73 | 1007.5 |
| 20260506060413 | 10 | 233 | 4.8 | 11.3 | 0.00 | 0.15 | 0.00 | 72 | 1007.4 |
| 20260506050413 | 10 | 273 | 3.2 | 8.0 | 0.00 | 0.15 | 0.00 | 72 | 1006.8 |
| 20260506044913 | 10 | 240 | 4.8 | 9.7 | 0.00 | 0.15 | 0.00 | 70 | 1006.8 |
| 20260506043413 | 10 | 259 | 4.8 | 11.3 | 0.00 | 0.15 | 0.00 | 68 | 1006.7 |
| 20260506041913 | 10 | 238 | 6.4 | 11.3 | 0.00 | 0.15 | 0.00 | 68 | 1006.5 |
| 20260506040413 | 10 | 255 | 6.4 | 16.1 | 0.00 | 0.15 | 0.15 | 68 | 1006.1 |
| 20260506034913 | 11 | 252 | 6.4 | 11.3 | 0.00 | 0.15 | 0.15 | 69 | 1006.0 |
| 20260506033413 | 11 | 281 | 9.7 | 16.1 | 0.00 | 0.15 | 0.15 | 69 | 1005.9 |
| 20260506031913 | 11 | 250 | 8.0 | 14.5 | 0.00 | 0.15 | 0.15 | 68 | 1005.5 |
| 20260506030413 | 11 | 259 | 11.3 | 22.5 | 0.00 | 0.15 | 0.15 | 68 | 1005.6 |
| 20260506024913 | 11 | 278 | 9.7 | 19.3 | 0.00 | 0.15 | 0.15 | 68 | 1005.2 |
| 20260506023413 | 12 | 285 | 9.7 | 19.3 | 0.00 | 0.15 | 0.15 | 68 | 1004.9 |
| 20260506021913 | 12 | 252 | 9.7 | 22.5 | 0.00 | 0.15 | 0.15 | 67 | 1004.8 |
| 20260506020413 | 12 | 275 | 8.0 | 17.7 | 0.00 | 0.15 | 0.15 | 69 | 1004.6 |
| 20260506014913 | 12 | 260 | 4.8 | 12.9 | 0.00 | 0.15 | 0.15 | 69 | 1004.4 |
| 20260506013413 | 12 | 203 | 8.0 | 16.1 | 0.00 | 0.15 | 0.15 | 67 | 1004.3 |
| 20260506011913 | 13 | 276 | 4.8 | 19.3 | 0.00 | 0.15 | 0.15 | 67 | 1003.9 |
| 20260506010413 | 13 | 264 | 4.8 | 9.7 | 0.00 | 0.15 | 0.15 | 63 | 1003.5 |
| 20260506004913 | 14 | 220 | 4.8 | 9.7 | 0.00 | 0.15 | 0.15 | 62 | 1002.9 |
| 20260506003413 | 14 | 226 | 8.0 | 12.9 | 0.00 | 0.15 | 0.15 | 62 | 1003.0 |
| 20260506001913 | 15 | 296 | 9.7 | 22.5 | 0.00 | 0.15 | 0.15 | 61 | 1003.0 |
| 20260506000413 | 15 | 274 | 9.7 | 19.3 | 0.00 | 0.15 | 0.15 | 64 | 1002.9 |
| 20260505234913 | 15 | 283 | 4.8 | 8.0 | 0.00 | 0.15 | 0.15 | 66 | 1002.4 |
| 20260505233413 | 15 | 274 | 4.8 | 9.7 | 0.00 | 0.15 | 0.15 | 64 | 1002.1 |
| 20260505231913 | 15 | 285 | 4.8 | 11.3 | 0.00 | 0.15 | 0.15 | 63 | 1001.7 |
| 20260505230413 | 16 | 285 | 6.4 | 11.3 | 0.00 | 0.15 | 0.15 | 63 | 1001.6 |
| 20260505224913 | 16 | 282 | 9.7 | 24.1 | 0.00 | 0.15 | 0.15 | 63 | 1001.7 |
| 20260505223413 | 16 | 269 | 9.7 | 19.3 | 0.00 | 0.15 | 0.15 | 65 | 1001.0 |
| 20260505221913 | 16 | 270 | 9.7 | 16.1 | 0.00 | 0.15 | 0.15 | 68 | 1000.8 |
| 20260505220413 | 16 | 251 | 3.2 | 16.1 | 0.00 | 0.15 | 0.15 | 70 | 1000.5 |
| 20260505214913 | 16 | 252 | 8.0 | 14.5 | 0.00 | 0.15 | 0.15 | 70 | 1000.3 |
| 20260505213413 | 16 | 277 | 8.0 | 14.5 | 0.00 | 0.15 | 0.15 | 71 | 1000.2 |
| 20260505211913 | 16 | 259 | 8.0 | 14.5 | 0.00 | 0.15 | 0.15 | 71 | 999.9 |
| 20260505210413 | 16 | 235 | 9.7 | 29.0 | 0.00 | 0.15 | 0.15 | 72 | 999.4 |
| 20260505204913 | 16 | 287 | 9.7 | 22.5 | 0.00 | 0.15 | 0.15 | 71 | 999.2 |
| 20260505203413 | 17 | 330 | 19.3 | 30.6 | 0.00 | 0.15 | 0.15 | 69 | 999.0 |
| 20260505201913 | 19 | 233 | 12.9 | 37.0 | 0.00 | 0.15 | 0.15 | 60 | 998.2 |
| 20260505200413 | 20 | 207 | 12.9 | 27.4 | 0.00 | 0.15 | 0.15 | 59 | 998.0 |
| 20260505194913 | 20 | 221 | 12.9 | 25.7 | 0.00 | 0.15 | 0.15 | 59 | 997.8 |
| 20260505193413 | 20 | 240 | 14.5 | 20.9 | 0.00 | 0.15 | 0.15 | 57 | 997.6 |
| 20260505191913 | 21 | 270 | 14.5 | 30.6 | 0.00 | 0.15 | 0.15 | 58 | 997.6 |
| 20260505190413 | 20 | 234 | 12.9 | 33.8 | 0.00 | 0.15 | 0.15 | 60 | 997.7 |
| 20260505184913 | 21 | 201 | 11.3 | 25.7 | 0.00 | 0.15 | 0.15 | 59 | 997.7 |
| 20260505183413 | 21 | 225 | 9.7 | 22.5 | 0.00 | 0.15 | 0.15 | 61 | 997.9 |
| 20260505181913 | 20 | 206 | 8.0 | 14.5 | 0.00 | 0.15 | 0.15 | 61 | 998.1 |
| 20260505180413 | 19 | 220 | 8.0 | 17.7 | 0.00 | 0.15 | 0.15 | 65 | 998.3 |
| 20260505174913 | 18 | 219 | 4.8 | 14.5 | 0.00 | 0.15 | 0.15 | 71 | 998.4 |
| 20260505173413 | 16 | 220 | 1.6 | 6.4 | 0.00 | 0.15 | 0.15 | 76 | 998.5 |
| 20260505171913 | 15 | 239 | 3.2 | 8.0 | 0.03 | 0.15 | 0.15 | 78 | 998.6 |
| 20260505170413 | 13 | 233 | 0.0 | 4.8 | 0.03 | 0.15 | 0.15 | 82 | 998.8 |
| 20260505164913 | 13 | 229 | 0.0 | 3.2 | 0.03 | 0.15 | 0.15 | 82 | 999.3 |
| 20260505163413 | 13 | 228 | 1.6 | 3.2 | 0.03 | 0.15 | 0.15 | 81 | 999.7 |
| 20260505161913 | 13 | 287 | 0.0 | 3.2 | 0.13 | 0.13 | 0.13 | 81 | 999.8 |
| 20260505160413 | 13 | 288 | 1.6 | 4.8 | 0.13 | 0.13 | 0.13 | 81 | 999.8 |
| 20260505151913 | 15 | 279 | 6.4 | 12.9 | 0.00 | 0.00 | 0.00 | 72 | 1000.6 |
| 20260505150413 | 16 | 248 | 6.4 | 14.5 | 0.00 | 0.00 | 0.00 | 69 | 1000.4 |
| 20260505140413 | 16 | 222 | 6.4 | 12.9 | 0.00 | 0.00 | 0.00 | 69 | 1000.3 |
| 20260505124913 | 11 | 1 | 0.0 | 0.0 | 0.00 | 0.18 | 0.00 | 74 | 1000.6 |